Location: Stigler
(35.2540°N, 95.1230°W)
Time: 14:08:30
(UTC-06:00)

Daily predictions for brighter satellites

Satellite Brightness Start Highest point End
(mag) Time Altitude Azimuth Time Altitude Azimuth Time Altitude Azimuth
Cosmos 1328 4.5 17:55:35 10° SSE 17:59:08 33° E 18:02:43 10° NNE
Meteor 2-2 Rocket 4.4 17:53:57 10° N 17:59:26 51° ENE 18:04:54 10° SSE
Cosmos 1844 Rocket 2.8 17:54:37 10° NNW 18:00:10 53° ENE 18:05:39 10° SE
CZ-3A R/B 4.3 17:57:22 10° NNW 18:00:45 17° NNE 18:03:58 10° ENE
Meteor 1-28 Rocket 4.3 17:58:16 10° NE 18:01:20 24° E 18:04:23 10° SSE
Aureole 2 Rocket 4.3 17:59:30 10° SE 18:01:33 15° E 18:03:42 10° ENE
YAOGAN 1 2.6 17:57:48 10° SSE 18:02:07 85° ENE 18:06:28 10° N
CZ-2C R/B 2.8 17:57:19 10° S 18:02:21 73° WSW 18:07:16 10° NNW
Cosmos 2333 4.5 17:57:00 10° SSW 18:02:36 74° WNW 18:08:12 10° NNE
COSMO-SKYMED 1 2.9 17:59:51 10° NNE 18:04:02 45° E 18:08:10 10° S
Cosmos 2228 Rocket 3.0 18:05:17 10° N 18:09:43 77° E 18:14:08 10° S
Cosmos 2360 Rocket 4.3 18:06:41 10° WSW 18:11:06 23° WNW 18:15:33 10° N
Cosmos 1980 3.9 18:06:32 10° S 18:12:02 53° ESE 18:17:32 10° NNE
SJ-6B 4.4 18:09:54 10° ESE 18:12:26 16° ENE 18:14:59 10° NNE
Intelsat 5-1 Rocket 3.9 18:12:59 10° S 18:13:58 11° SSE 18:15:06 10° SE
CZ-4 R/B 4.5 18:09:50 10° SSE 18:13:59 89° ENE 18:18:09 10° NNW
Milstar 3 3.6 18:08:01 10° W 18:14:38 46° S 18:21:21 10° ESE
Cosmos 389 Rocket 4.1 18:15:28 10° NNW 18:18:50 40° W 18:22:09 10° SSW
Cosmos 2058 3.6 18:15:19 10° SSE 18:19:00 32° E 18:22:41 10° NNE
COSMOS 2441 4.5 18:16:45 10° SSE 18:21:38 85° WSW 18:26:31 10° NNW
Cosmos 2333 Rocket 2.2 18:18:49 10° SSW 18:24:27 84° ESE 18:30:08 10° NNE
Cosmos 1703 4.5 18:24:03 10° SE 18:27:02 21° E 18:29:16 14° NE
Atlas Centaur 2 3.6 18:23:35 10° W 18:28:00 27° SSW 18:31:41 10° SE
Meteor 2-10 4.3 18:31:41 10° N 18:36:31 42° ENE 18:41:27 10° SSE
METEOR-M 4.5 18:31:33 10° SE 18:36:32 42° ENE 18:41:33 10° N
Cosmos 372 Rocket 4.4 18:31:50 10° N 18:36:35 37° ENE 18:41:17 10° SE
Cosmos 2219 Rocket 2.8 18:32:19 10° SW 18:37:51 57° WNW 18:43:25 10° NNE
Cosmos 1340 Rocket 3.0 18:37:52 10° SSE 18:41:40 47° E 18:45:23 10° NNE
BREEZE-M DEB (TANK) 3.4 18:40:11 10° W 18:42:38 22° NW 18:43:54 14° N
Cosmos 1356 Rocket 4.4 18:39:54 10° SE 18:43:08 24° E 18:43:34 23° E
Meteor 1-27 4.4 18:37:48 10° N 18:43:31 55° E 18:49:12 10° SSE
Cosmos 2151 3.0 18:40:39 10° S 18:44:50 80° W 18:49:04 10° N
Cosmos 540 Rocket 3.5 18:40:47 10° SSW 18:45:56 83° WNW 18:51:09 10° NNE
Abrixas 2.3 18:43:21 10° SW 18:46:16 89° SSE 18:47:20 35° NE
Cosmos 2278 Rocket 2.2 18:41:06 10° NNW 18:46:41 56° ENE 18:52:14 10° SE
Cosmos 1515 Rocket 4.5 18:45:01 10° NNW 18:49:21 52° W 18:53:38 10° S
SL-14 R/B 3.6 18:46:32 10° SSW 18:50:23 66° W 18:54:20 10° N
Cosmos 783 Rocket 4.5 18:45:38 10° SSW 18:50:56 83° ESE 18:56:16 10° NNE
Cosmos 1626 2.8 18:49:00 10° SSE 18:52:22 32° E 18:52:37 32° E
USA 215 3.3 18:46:15 10° ESE 18:52:38 58° NE 18:59:02 10° NW
Cosmos 1805 Rocket 3.7 18:48:46 10° SSE 18:53:03 51° E 18:57:08 11° NNE
OAO 1 Rocket 4.4 18:48:31 10° W 18:53:50 89° S 18:56:48 27° E
Cosmos 1484 Rocket 4.4 18:51:42 10° SSW 18:55:19 38° W 18:59:01 10° NNW
Cosmos 1844 4.2 18:52:02 10° NNW 18:57:45 65° WSW 19:03:27 10° S
Cosmos 1151 Rocket 3.5 18:54:30 10° NNW 18:58:43 61° W 19:02:57 10° S
Haruka 3.9 18:58:28 10° WSW 19:02:31 63° S 19:09:15 22° E
NOAA 12 4.0 18:58:24 10° SSE 19:03:37 84° ENE 19:08:53 10° NNW
Cosmos 1125 Rocket 3.7 19:01:33 10° NNW 19:06:45 73° WSW 19:11:54 10° S
BREEZE M DEB (TANK) 3.9 19:05:29 10° NNW 19:05:47 12° NNW 19:05:47 12° NNW
ALOS 2.6 19:03:32 10° SE 19:07:52 41° ENE 19:12:14 10° N
Cosmos 2237 Rocket 2.9 19:03:08 10° SW 19:08:35 53° WNW 19:14:06 10° NNE
Cosmos 44 4.4 19:05:51 10° SW 19:10:55 46° WNW 19:15:09 14° NNE
Cosmos 1300 4.0 19:07:41 10° NNW 19:11:18 40° W 19:14:54 10° SSW
Cosmos 1726 3.7 19:09:31 10° NNW 19:13:00 36° W 19:16:28 10° SSW
SL-16 R/B 2.1 19:07:34 10° S 19:13:09 69° ESE 19:16:18 27° NNE
Spot 2 Rocket 3.7 19:08:35 10° SE 19:13:21 44° ENE 19:18:08 10° N
Hubble Space Telescope 3.3 19:14:02 10° SW 19:16:31 15° SSW 19:18:59 10° SSE
BREEZE-M DEB (TANK) 3.9 19:15:05 10° WSW 19:15:43 22° WSW 19:15:43 22° WSW
Sich 1 3.0 19:12:38 10° S 19:17:00 61° E 19:17:57 48° NE
Cosmos 1633 Rocket 3.0 19:15:49 10° S 19:20:05 57° E 19:20:05 57° E
FREGAT/IRIS 3.0 19:17:20 10° S 19:25:10 - NNW 19:20:10 61° WSW
Cosmos 1538 Rocket 3.9 19:15:30 10° S 19:20:42 67° ESE 19:22:41 38° NE
Lacrosse 5 rocket 2.7 19:17:29 10° NNW 19:19:24 24° N 19:19:24 24° N
OTV 4 1.6 19:18:35 10° WNW 19:20:41 42° WNW 19:20:41 42° WNW
Transit 2A Rocket 4.3 19:18:58 10° NNW 19:23:16 70° ENE 19:23:23 69° ENE
Cosmos 2297 3.7 19:20:09 10° NNW 19:25:45 55° ENE 19:27:02 46° ESE
SL-19 R/B 4.3 19:22:42 10° SSE 19:28:48 82° ENE 19:34:30 10° NNW
Resurs 01 Rocket 3.1 19:31:55 25° N 19:31:55 25° N 19:33:51 10° N
USA 229 DEB 3.9 19:24:23 10° S 19:30:53 48° ESE 19:31:47 46° E
USA 229 3.9 19:24:30 10° S 19:31:00 48° ESE 19:31:49 45° E
Centaur AC-119 4.1 19:41:20 10° SW 19:42:53 23° S 19:42:53 23° S
Cosmos 1707 Rocket 3.9 19:40:23 10° NNW 19:44:40 62° W 19:48:56 10° S
Iridium 4 Rocket 4.1 19:41:52 10° S 19:44:57 40° S 19:44:57 40° S
Cosmos 1461 3.6 19:43:12 10° SW 19:47:02 51° WNW 19:47:02 51° WNW
FengYun 1-2 T 4.4 19:44:35 10° S 19:50:09 73° WSW 19:55:43 10° NNW
H-2A ROCKET BODY 3.0 19:44:43 10° W 20:01:44 52° S 20:02:29 49° SSE
FENGYUN 3A 4.2 19:58:53 10° S 20:04:06 55° W 20:09:23 10° NNW
